• In Österreich
  • Länderverzeichnis
  • Für 7 Tage
  • Wassertemperatur
  • Satellitenkarten
  • Wetterkarte
  • News
  • Widgets
  • user-avatar
    Anmelden

    Stündliche Wetter Kijewice

    Heute, 13 November, Dienstag

    Zeit Temperatur Niederschläge Wind Luftdruck Luftfeuchtigkeit
    00:00 +10°C° 0 mm 4 m/S 761 mmHg 83%
    01:00 +9°C° 0 mm 2 m/S 761 mmHg 87%
    02:00 +9°C° 0 mm 2 m/S 761 mmHg 86%
    03:00 +9°C° 0 mm 3 m/S 761 mmHg 86%
    04:00 +9°C° 0 mm 3 m/S 762 mmHg 85%
    05:00 +9°C° 0 mm 3 m/S 762 mmHg 86%
    06:00 +9°C° 0 mm 2 m/S 762 mmHg 86%
    07:00 +8°C° 0 mm 2 m/S 762 mmHg 89%
    08:00 +9°C° 0.3 mm 2 m/S 762 mmHg 87%
    09:00 +9°C° 0.3 mm 3 m/S 762 mmHg 86%
    10:00 +10°C° 0.3 mm 3 m/S 762 mmHg 84%
    11:00 +10°C° 1.5 mm 3 m/S 762 mmHg 87%
    12:00 +10°C° 1.5 mm 3 m/S 763 mmHg 89%
    13:00 +10°C° 0 mm 3 m/S 763 mmHg 93%
    14:00 +10°C° 0.6 mm 3 m/S 763 mmHg 93%
    15:00 +10°C° 0.6 mm 3 m/S 763 mmHg 93%
    16:00 +10°C° 0.6 mm 3 m/S 763 mmHg 93%
    17:00 +10°C° 0.3 mm 3 m/S 764 mmHg 91%
    18:00 +10°C° 0.3 mm 3 m/S 764 mmHg 88%
    19:00 +10°C° 0.3 mm 4 m/S 764 mmHg 85%
    20:00 +10°C° 0 mm 4 m/S 765 mmHg 85%
    21:00 +8°C° 0 mm 4 m/S 765 mmHg 86%
    22:00 +8°C° 0 mm 4 m/S 765 mmHg 86%
    23:00 +7°C° 0 mm 4 m/S 766 mmHg 87%

    Morgen, 14 November, Mittwoch

    Zeit Temperatur Niederschläge Wind Luftdruck Luftfeuchtigkeit
    00:00 +7°C° 0 mm 4 m/S 766 mmHg 88%
    01:00 +7°C° 0 mm 4 m/S 766 mmHg 89%
    02:00 +7°C° 0 mm 4 m/S 766 mmHg 90%
    03:00 +6°C° 0 mm 4 m/S 766 mmHg 91%
    04:00 +6°C° 0 mm 4 m/S 767 mmHg 92%
    05:00 +6°C° 0 mm 4 m/S 767 mmHg 92%
    06:00 +6°C° 0 mm 4 m/S 767 mmHg 92%
    07:00 +6°C° 0 mm 4 m/S 767 mmHg 92%
    08:00 +7°C° 0 mm 4 m/S 768 mmHg 91%
    09:00 +7°C° 0 mm 4 m/S 768 mmHg 89%
    10:00 +7°C° 0 mm 4 m/S 768 mmHg 87%
    11:00 +8°C° 0 mm 4 m/S 768 mmHg 86%
    12:00 +9°C° 0 mm 3 m/S 768 mmHg 84%
    13:00 +9°C° 0 mm 3 m/S 769 mmHg 83%
    14:00 +9°C° 0 mm 2 m/S 769 mmHg 84%
    15:00 +9°C° 0 mm 2 m/S 769 mmHg 86%
    16:00 +9°C° 0 mm 1 m/S 769 mmHg 88%
    17:00 +9°C° 0 mm 1 m/S 769 mmHg 89%
    18:00 +9°C° 0 mm 1 m/S 769 mmHg 91%
    19:00 +8°C° 0 mm 1 m/S 769 mmHg 93%
    20:00 +8°C° 0 mm 1 m/S 770 mmHg 93%
    21:00 +8°C° 0 mm 1 m/S 770 mmHg 94%
    22:00 +7°C° 0 mm 1 m/S 770 mmHg 94%
    23:00 +7°C° 0 mm 1 m/S 770 mmHg 94%

    übermorgen, 15 November, Donnerstag

    Zeit Temperatur Niederschläge Wind Luftdruck Luftfeuchtigkeit
    00:00 +7°C° 0 mm 1 m/S 770 mmHg 95%
    01:00 +7°C° 0 mm 1 m/S 770 mmHg 95%
    02:00 +7°C° 0 mm 1 m/S 770 mmHg 95%
    03:00 +7°C° 0 mm 1 m/S 770 mmHg 95%
    04:00 +7°C° 0 mm 1 m/S 770 mmHg 95%
    05:00 +7°C° 0 mm 1 m/S 770 mmHg 95%
    06:00 +7°C° 0 mm 1 m/S 770 mmHg 95%
    07:00 +6°C° 0 mm 1 m/S 770 mmHg 95%
    08:00 +6°C° 0 mm 2 m/S 770 mmHg 91%
    09:00 +7°C° 0 mm 2 m/S 770 mmHg 88%
    10:00 +8°C° 0 mm 2 m/S 770 mmHg 84%
    11:00 +9°C° 0 mm 2 m/S 770 mmHg 81%
    12:00 +9°C° 0 mm 2 m/S 770 mmHg 77%
    13:00 +10°C° 0 mm 2 m/S 770 mmHg 73%
    14:00 +9°C° 0 mm 2 m/S 770 mmHg 76%
    15:00 +9°C° 0 mm 2 m/S 770 mmHg 80%
    16:00 +8°C° 0 mm 2 m/S 770 mmHg 84%
    17:00 +7°C° 0 mm 2 m/S 771 mmHg 86%
    18:00 +7°C° 0 mm 2 m/S 771 mmHg 87%
    19:00 +7°C° 0 mm 3 m/S 771 mmHg 89%
    20:00 +5°C° 0 mm 3 m/S 771 mmHg 90%
    21:00 +5°C° 0 mm 3 m/S 771 mmHg 91%
    22:00 +5°C° 0 mm 3 m/S 772 mmHg 91%
    23:00 +5°C° 0 mm 3 m/S 772 mmHg 92%

    16 November, Freitag

    Zeit Temperatur Niederschläge Wind Luftdruck Luftfeuchtigkeit
    00:00 +4°C° 0 mm 3 m/S 772 mmHg 92%
    01:00 +4°C° 0 mm 3 m/S 772 mmHg 93%
    02:00 +4°C° 0 mm 3 m/S 772 mmHg 92%
    03:00 +4°C° 0 mm 3 m/S 772 mmHg 92%
    04:00 +3°C° 0 mm 3 m/S 772 mmHg 92%
    05:00 +3°C° 0 mm 3 m/S 773 mmHg 92%
    06:00 +3°C° 0 mm 3 m/S 773 mmHg 92%
    07:00 +3°C° 0 mm 3 m/S 773 mmHg 91%
    08:00 +4°C° 0 mm 3 m/S 773 mmHg 86%
    09:00 +5°C° 0 mm 4 m/S 774 mmHg 80%
    10:00 +6°C° 0 mm 4 m/S 774 mmHg 75%
    11:00 +6°C° 0 mm 4 m/S 774 mmHg 71%
    12:00 +7°C° 0 mm 4 m/S 774 mmHg 67%
    13:00 +8°C° 0 mm 4 m/S 774 mmHg 63%
    14:00 +8°C° 0 mm 3 m/S 774 mmHg 67%
    15:00 +7°C° 0 mm 3 m/S 774 mmHg 71%
    16:00 +7°C° 0 mm 3 m/S 774 mmHg 75%
    17:00 +5°C° 0 mm 3 m/S 774 mmHg 78%
    18:00 +4°C° 0 mm 3 m/S 774 mmHg 80%
    19:00 +4°C° 0 mm 3 m/S 775 mmHg 82%
    20:00 +4°C° 0 mm 3 m/S 775 mmHg 83%
    21:00 +3°C° 0 mm 3 m/S 775 mmHg 84%
    22:00 +3°C° 0 mm 3 m/S 775 mmHg 85%
    23:00 +3°C° 0 mm 3 m/S 775 mmHg 86%

    17 November, Samstag

    Zeit Temperatur Niederschläge Wind Luftdruck Luftfeuchtigkeit
    00:00 +2°C° 0 mm 3 m/S 775 mmHg 88%
    01:00 +3°C° 0 mm 2 m/S 776 mmHg 89%
    02:00 +2°C° 0 mm 3 m/S 776 mmHg 89%
    03:00 +2°C° 0 mm 3 m/S 776 mmHg 90%
    04:00 +1°C° 0 mm 3 m/S 776 mmHg 90%
    05:00 +1°C° 0 mm 3 m/S 776 mmHg 90%
    06:00 +1°C° 0 mm 3 m/S 776 mmHg 90%
    07:00 +1°C° 0 mm 3 m/S 776 mmHg 91%
    08:00 +2°C° 0 mm 3 m/S 776 mmHg 86%
    09:00 +3°C° 0 mm 3 m/S 776 mmHg 82%
    10:00 +3°C° 0 mm 3 m/S 776 mmHg 77%
    11:00 +4°C° 0 mm 3 m/S 776 mmHg 73%
    12:00 +5°C° 0 mm 3 m/S 776 mmHg 70%
    13:00 +7°C° 0 mm 3 m/S 776 mmHg 66%
    14:00 +5°C° 0 mm 3 m/S 776 mmHg 69%
    15:00 +5°C° 0 mm 2 m/S 776 mmHg 73%
    16:00 +5°C° 0 mm 2 m/S 775 mmHg 76%
    17:00 +4°C° 0 mm 2 m/S 775 mmHg 79%
    18:00 +4°C° 0 mm 2 m/S 775 mmHg 81%
    19:00 +3°C° 0 mm 2 m/S 775 mmHg 84%
    20:00 +3°C° 0 mm 2 m/S 775 mmHg 84%
    21:00 +3°C° 0 mm 2 m/S 775 mmHg 85%
    22:00 +3°C° 0 mm 1 m/S 775 mmHg 86%
    23:00 +3°C° 0 mm 1 m/S 775 mmHg 86%

    18 November, Sonntag

    Zeit Temperatur Niederschläge Wind Luftdruck Luftfeuchtigkeit
    00:00 +3°C° 0 mm 1 m/S 774 mmHg 86%
    01:00 +3°C° 0 mm 1 m/S 774 mmHg 86%
    02:00 +3°C° 0 mm 1 m/S 774 mmHg 86%
    03:00 +3°C° 0 mm 1 m/S 773 mmHg 86%
    04:00 +3°C° 0 mm 1 m/S 773 mmHg 86%
    05:00 +2°C° 0 mm 1 m/S 772 mmHg 86%
    06:00 +2°C° 0 mm 1 m/S 772 mmHg 86%
    07:00 +2°C° 0 mm 1 m/S 772 mmHg 86%
    08:00 +3°C° 0 mm 1 m/S 772 mmHg 82%
    09:00 +4°C° 0 mm 1 m/S 771 mmHg 78%
    10:00 +5°C° 0 mm 1 m/S 771 mmHg 74%
    11:00 +5°C° 0 mm 2 m/S 771 mmHg 73%
    12:00 +6°C° 0 mm 2 m/S 770 mmHg 73%
    13:00 +7°C° 0 mm 3 m/S 770 mmHg 72%
    14:00 +7°C° 0 mm 3 m/S 769 mmHg 76%
    15:00 +7°C° 0 mm 3 m/S 769 mmHg 80%
    16:00 +5°C° 0 mm 4 m/S 769 mmHg 84%
    17:00 +6°C° 0 mm 4 m/S 768 mmHg 82%
    18:00 +6°C° 0 mm 4 m/S 768 mmHg 79%
    19:00 +6°C° 0 mm 4 m/S 768 mmHg 76%
    20:00 +5°C° 0 mm 4 m/S 768 mmHg 75%
    21:00 +5°C° 0 mm 4 m/S 768 mmHg 74%
    22:00 +5°C° 0 mm 4 m/S 768 mmHg 72%
    23:00 +5°C° 0 mm 4 m/S 768 mmHg 71%
    Mehr zeigen